Regional Weather Roundup
Issued by NWS

Home | Current Version | Previous Version | Graphics & Text | Print | Product List | Glossary On
Versions: 1 2 3 4 5 6 7 8 9 10 11 12 13 14 15 16 17 18 19 20 21 22 23 24 25 26 27 28 29 30 31 32 33 34 35 36 37 38 39 40 41 42 43 44 45 46 47 48 49 50
000
ASUS45 KABQ 040901
RWRNM
NEW MEXICO REGIONAL WEATHER ROUNDUP
NATIONAL WEATHER SERVICE ALBUQUERQUE NM
300 AM MDT FRI SEP 04 2015

NOTE: "FAIR" MEANS FEW OR NO CLOUDS BELOW 12,000 FEET AGL WITH NO
       SIGNIFICANT WEATHER OR OBSTRUCTIONS TO VISION.

      THIS PRODUCT IS RELEASED AS TWO VERSIONS.  ONE VERSION NEAR
      THE TOP OF THE HOUR CONTAINING PRELIMINARY DATA FROM ALBUQUERQUE
      AND OTHER STATIONS.  A FINAL VERSION WITH ADDITIONAL DATA IS
      ISSUED ABOUT 10 MINUTES AFTER THE HOUR.

NMZ501-503-504-510>518-041000-
NORTHWEST PLATEAU/NORTHCENTRAL MOUNTAINS

CITY           SKY/WX    TMP DP  RH WIND       PRES   REMARKS
FARMINGTON     MOCLDY    66  48  52 E7        30.06S
SANTA FE       PTCLDY    66  44  45 CALM      30.12F
TAOS           PTCLDY    46  34  61 N7        30.21S
ANGEL FIRE     FAIR      36  34  93 CALM      30.29S

$$
NMZ402-403-502-505>509-041000-
WESTCENTRAL MOUNTAINS/SOUTHWEST MOUNTAINS

CITY           SKY/WX    TMP DP  RH WIND       PRES   REMARKS
GALLUP         PTCLDY    57  48  72 SW5       30.15F
GRANTS         CLOUDY    59  51  73 SW3       30.17S
SILVER CITY      N/A     64  57  77 NW5       30.10S

$$
NMZ407-409-411-412-041000-
SOUTHERN DESERTS

CITY           SKY/WX    TMP DP  RH WIND       PRES   REMARKS
DEMING         CLOUDY    70  57  63 SW8       30.03R
HOLLOMAN AFB   MOCLDY    69  51  52 SE2       29.97F
ALAMOGORDO     PTCLDY    68  50  52 W6        30.00S
T OR C         CLOUDY    66  56  70 NW9       30.04F

$$
NMZ519>523-041000-
CENTRAL VALLEYS/CENTRAL HIGHLANDS

CITY           SKY/WX    TMP DP  RH WIND       PRES   REMARKS
ALBUQUERQUE    PTCLDY    71  49  45 S5        30.07F
DOUBLE EAGLE   PTCLDY    61  46  57 S5        30.11S
MORIARTY ARPT  FAIR      58  44  60 CALM      30.13S
CLINES CORNERS PTCLDY    57  44  62 W10       30.16S
BELEN          FAIR      66  50  56 CALM      30.07S
SOCORRO        NOT AVBL

$$
NMZ524>526-539-540-041000-
SOUTHCENTRAL MOUNTAINS

CITY           SKY/WX    TMP DP  RH WIND       PRES   REMARKS
RUIDOSO        PTCLDY    61  48  63 W7        30.19F

$$
NMZ527>531-041000-
NORTHEAST HIGHLANDS/NORTHEAST PLAINS

CITY           SKY/WX    TMP DP  RH WIND       PRES   REMARKS
LAS VEGAS      CLEAR     61  43  51 W6        30.15S
RATON          PTCLDY    53  47  79 NE7       30.09S
CLAYTON        CLEAR     69  49  48 W13       29.99F

$$
NMZ532>537-041000-
EASTCENTRAL PLAINS

CITY           SKY/WX    TMP DP  RH WIND       PRES   REMARKS
TUCUMCARI      PTCLDY    73  48  41 SW7       29.95S
CANNON AFB     MOCLDY    71  51  48 S10       30.00F
CLOVIS AIRPORT MOCLDY    70  52  52 S7        30.02S

$$
NMZ028-029-538-041000-
SOUTHEAST PLAINS

CITY           SKY/WX    TMP DP  RH WIND       PRES   REMARKS
ROSWELL        PTCLDY    76  47  35 S12       29.95S
ARTESIA        MOCLDY    77  50  38 S7        29.95S
CARLSBAD       MOCLDY    76  48  37 SE5       29.93F
HOBBS            N/A     66  52  59 CALM      29.99S


$$



USA.gov is the U.S. government's official web portal to all federal, state and local government web resources and services.